GSAT0221 (GALILEO 25)

Last updated on Thu Oct 30 2025 00:02:36 GMT+0000 (Coordinated Universal Time)

1 43564U 18060A 25301.95041344 -.00000066 00000+0 00000+0 0 9999 2 43564 57.2379 348.0291 0005990 271.7592 88.2373 1.70476084 45221
UTC large
Height (km)
Speed (km/s)
/
Latitude / Longitude
Inclination (degrees)
Orbital Period (minutes)
Azimuth
Elevation
Range (km)
Doppler Factor

Next 0 passes for location: London (51.5072 / 0.1276)

Sorry there are no passes over London.